FW9268 Weather Reports


Display with metric or nautical units.
time (UTC)temp
F
wind
direction
speed
MPH
gust
MPH
rain 1hr
in
rain 24hr
in
rain mn
in
humidity
%
barometer
mb
20260508180038 58 360 7.0 14.0 0.00 0.00 0.00 33 1014.0
20260508180027 58 332 7.0 14.0 0.00 0.00 0.00 33 1007.6
20260508174537 57 224 4.0 13.0 0.00 0.00 0.00 33 1014.4
20260508174528 57 223 4.0 13.0 0.00 0.00 0.00 34 1007.9
20260508173037 58 244 6.0 16.0 0.00 0.00 0.00 32 1014.5
20260508173017 58 252 7.0 15.0 0.00 0.00 0.00 32 1008.1
20260508171536 58 242 7.0 17.0 0.00 0.00 0.00 31 1014.6
20260508171518 58 220 8.0 17.0 0.00 0.00 0.00 31 1008.3
20260508170036 58 211 6.0 18.0 0.00 0.00 0.00 32 1014.9
20260508170016 58 229 6.0 18.0 0.00 0.00 0.00 32 1008.5
20260508164546 56 251 4.0 16.0 0.00 0.00 0.00 34 1015.2
20260508164512 56 288 3.0 16.0 0.00 0.00 0.00 35 1008.8
20260508163037 57 248 7.0 16.0 0.00 0.00 0.00 32 1015.2
20260508163012 57 234 8.0 16.0 0.00 0.00 0.00 33 1008.7
20260508161536 58 200 4.0 16.0 0.00 0.00 0.00 35 1015.3
20260508161516 58 219 6.0 16.0 0.00 0.00 0.00 35 1009.0
20260508160037 56 285 6.0 15.0 0.00 0.00 0.00 34 1015.4
20260508160007 56 298 7.0 15.0 0.00 0.00 0.00 34 1009.2
20260508154603 56 282 3.0 12.0 0.00 0.00 0.00 36 1015.5
20260508154504 56 260 3.0 13.0 0.00 0.00 0.00 36 1009.3
20260508153100 54 275 4.0 12.0 0.00 0.00 0.00 36 1009.5
20260508153040 54 238 5.0 13.0 0.00 0.00 0.00 35 1015.8
20260508151559 53 304 2.0 8.0 0.00 0.00 0.00 37 1009.7
20260508151540 53 304 2.0 8.0 0.00 0.00 0.00 36 1015.9
20260508150053 52 253 6.0 11.0 0.00 0.00 0.00 38 1009.9
20260508150040 52 254 4.0 11.0 0.00 0.00 0.00 37 1016.0
20260508144551 52 244 2.0 12.0 0.00 0.00 0.00 41 1010.0
20260508144542 51 0 4.0 12.0 0.00 0.00 0.00 39 1016.2
20260508143052 51 254 5.0 13.0 0.00 0.00 0.00 40 1010.1
20260508143042 51 254 5.0 13.0 0.00 0.00 0.00 37 1016.3
20260508141545 51 232 4.0 10.0 0.00 0.00 0.00 39 1010.4
20260508141539 50 235 3.0 11.0 0.00 0.00 0.00 40 1016.5
20260508140042 49 248 4.0 10.0 0.00 0.00 0.00 41 1016.6
20260508134555 48 252 4.0 9.0 0.00 0.00 0.00 43 1016.7
20260508134537 48 249 4.0 9.0 0.00 0.00 0.00 44 1010.5
20260508133057 47 256 5.0 9.0 0.00 0.00 0.00 45 1010.5
20260508133049 47 252 5.0 9.0 0.00 0.00 0.00 44 1016.8
20260508131539 45 236 3.0 9.0 0.00 0.00 0.00 47 1016.7
20260508131534 45 236 3.0 9.0 0.00 0.00 0.00 48 1010.5
20260508130042 44 270 0.0 8.0 0.00 0.00 0.00 53 1016.9
20260508130028 44 270 1.0 8.0 0.00 0.00 0.00 53 1010.6
20260508124539 42 0 0.0 3.0 0.00 0.00 0.00 56 1016.8
20260508124531 42 238 0.0 3.0 0.00 0.00 0.00 57 1010.5
20260508123047 39 0 0.0 2.0 0.00 0.00 0.00 62 1016.7
20260508123019 39 238 0.0 2.0 0.00 0.00 0.00 63 1010.5
20260508121538 35 0 0.0 1.0 0.00 0.00 0.00 72 1016.6
20260508121514 35 239 0.0 1.0 0.00 0.00 0.00 72 1010.3
20260508120043 32 0 0.0 1.0 0.00 0.00 0.00 79 1016.5
20260508120011 32 239 0.0 1.0 0.00 0.00 0.00 80 1010.2
20260508114541 30 0 0.0 1.0 0.00 0.00 0.00 82 1016.4
20260508114509 30 239 0.0 1.0 0.00 0.00 0.00 82 1010.1
20260508113040 30 0 0.0 0.0 0.00 0.00 0.00 82 1016.3
20260508113006 30 239 0.0 0.0 0.00 0.00 0.00 83 1010.2
20260508111540 29 0 0.0 0.0 0.00 0.00 0.00 82 1016.2
20260508111503 29 239 0.0 0.0 0.00 0.00 0.00 82 1010.0
20260508110039 29 0 0.0 0.0 0.00 0.00 0.00 80 1016.2
20260508110003 29 239 0.0 0.0 0.00 0.00 0.00 81 1010.0
20260508104601 29 239 0.0 0.0 0.00 0.00 0.00 80 1009.9
20260508104536 29 0 0.0 0.0 0.00 0.00 0.00 81 1016.2
20260508103100 29 239 0.0 0.0 0.00 0.00 0.00 81 1010.0
20260508103036 29 0 0.0 0.0 0.00 0.00 0.00 80 1016.3
20260508101558 30 239 0.0 0.0 0.00 0.00 0.00 79 1009.9
20260508101542 30 0 0.0 0.0 0.00 0.00 0.00 79 1016.2
20260508100058 30 239 0.0 0.0 0.00 0.00 0.00 80 1010.0
20260508100048 30 0 0.0 0.0 0.00 0.00 0.00 80 1016.3
20260508094610 30 239 0.0 0.0 0.00 0.00 0.00 80 1010.1
20260508094541 30 0 0.0 0.0 0.00 0.00 0.00 80 1016.3
20260508093055 30 239 0.0 0.0 0.00 0.00 0.00 79 1010.0
20260508093038 30 0 0.0 0.0 0.00 0.00 0.00 79 1016.4
20260508091611 32 239 0.0 0.0 0.00 0.00 0.00 73 1010.0
20260508091535 32 0 0.0 0.0 0.00 0.00 0.00 72 1016.3
20260508090106 38 0 1.0 3.0 0.00 0.00 0.00 53 1016.2
20260508090058 38 239 0.0 3.0 0.00 0.00 0.00 55 1010.0
20260508084546 39 240 1.0 3.0 0.00 0.00 0.00 52 1010.0
20260508084544 39 240 1.0 5.0 0.00 0.00 0.00 51 1016.3
20260508083045 40 241 2.0 7.0 0.00 0.00 0.00 50 1010.1
20260508083039 40 241 2.0 7.0 0.00 0.00 0.00 50 1016.3
20260508081556 40 246 1.0 4.0 0.00 0.00 0.00 50 1016.2
20260508081547 40 246 1.0 4.0 0.00 0.00 0.00 51 1010.1
20260508080044 39 249 0.0 4.0 0.00 0.00 0.00 53 1010.2
20260508080040 39 249 0.0 4.0 0.00 0.00 0.00 52 1016.4
20260508074545 39 250 0.0 4.0 0.00 0.00 0.00 53 1010.3
20260508074538 39 250 0.0 4.0 0.00 0.00 0.00 52 1016.4
20260508073102 39 0 0.0 3.0 0.00 0.00 0.00 51 1016.5
20260508073046 39 252 0.0 3.0 0.00 0.00 0.00 52 1010.2
20260508071544 39 0 0.0 3.0 0.00 0.00 0.00 52 1016.6
20260508071541 39 253 0.0 3.0 0.00 0.00 0.00 52 1010.4
20260508070046 39 254 1.0 6.0 0.00 0.00 0.00 52 1016.6
20260508070040 39 254 1.0 6.0 0.00 0.00 0.00 53 1010.4
20260508064540 39 260 1.0 4.0 0.00 0.00 0.00 53 1010.5
20260508063105 36 262 0.0 2.0 0.00 0.00 0.00 62 1010.6
20260508063039 36 0 0.0 2.0 0.00 0.00 0.00 61 1016.9
20260508061542 36 262 0.0 3.0 0.00 0.00 0.00 60 1016.9
20260508061532 36 262 0.0 2.0 0.00 0.00 0.00 60 1010.7
20260508060059 36 0 1.0 3.0 0.00 0.00 0.00 63 1017.2
20260508060030 36 263 1.0 3.0 0.00 0.00 0.00 62 1010.9
20260508054540 36 0 0.0 3.0 0.00 0.00 0.00 63 1017.2
20260508054527 36 264 0.0 3.0 0.00 0.00 0.00 64 1011.0
20260508053039 36 0 0.0 2.0 0.00 0.00 0.00 61 1017.3
20260508053034 36 264 0.0 2.0 0.00 0.00 0.00 61 1011.0
20260508051555 36 0 0.0 2.0 0.00 0.00 0.00 61 1017.3
20260508051522 36 265 0.0 2.0 0.00 0.00 0.00 62 1011.1
20260508050042 37 0 0.0 2.0 0.00 0.00 0.00 61 1017.4
20260508050019 37 265 0.0 2.0 0.00 0.00 0.00 62 1011.1
20260508044547 37 0 0.0 1.0 0.00 0.00 0.00 60 1017.4
20260508044519 37 265 0.0 1.0 0.00 0.00 0.00 60 1011.3
20260508043039 37 0 0.0 0.0 0.00 0.00 0.00 60 1017.5
20260508043019 37 265 0.0 0.0 0.00 0.00 0.00 60 1011.4
20260508041537 37 0 0.0 0.0 0.00 0.00 0.00 62 1017.6
20260508041520 37 265 0.0 0.0 0.00 0.00 0.00 63 1011.5
20260508040048 38 0 0.0 0.0 0.00 0.00 0.00 60 1017.7
20260508040018 38 265 0.0 0.0 0.00 0.00 0.00 60 1011.5
20260508034547 38 0 0.0 2.0 0.00 0.00 0.00 59 1017.8
20260508034524 38 265 0.0 2.0 0.00 0.00 0.00 59 1011.6
20260508033045 38 0 0.0 0.0 0.00 0.00 0.00 62 1017.8
20260508033024 38 265 0.0 0.0 0.00 0.00 0.00 62 1011.7
20260508031546 40 0 0.0 0.0 0.00 0.00 0.00 51 1017.7
20260508031518 40 265 0.0 0.0 0.00 0.00 0.00 52 1011.5
20260508030038 41 0 0.0 0.0 0.00 0.00 0.00 48 1017.8
20260508030019 41 265 0.0 0.0 0.00 0.00 0.00 49 1011.7
20260508024559 41 0 0.0 0.0 0.00 0.00 0.00 48 1017.8
20260508024522 41 265 0.0 0.0 0.00 0.00 0.00 49 1011.8
20260508023042 42 0 0.0 0.0 0.00 0.00 0.00 46 1017.8
20260508023016 42 265 0.0 0.0 0.00 0.00 0.00 46 1011.7
20260508021543 43 0 0.0 0.0 0.00 0.00 0.00 43 1017.7
20260508021526 43 265 0.0 0.0 0.00 0.00 0.00 43 1011.6
20260508020047 44 0 0.0 0.0 0.00 0.00 0.00 42 1017.6
20260508020014 44 265 0.0 0.0 0.00 0.00 0.00 42 1011.5
20260508014545 45 0 0.0 0.0 0.00 0.00 0.00 45 1017.5
20260508014514 45 265 0.0 0.0 0.00 0.00 0.00 45 1011.4
20260508013037 46 265 0.0 2.0 0.00 0.00 0.00 41 1017.4
20260508013013 46 265 0.0 2.0 0.00 0.00 0.00 42 1011.3
20260508011544 47 0 0.0 4.0 0.00 0.00 0.00 38 1017.3
20260508011515 47 265 0.0 4.0 0.00 0.00 0.00 39 1011.3
20260508010048 48 267 2.0 9.0 0.00 0.00 0.00 37 1017.2
20260508010027 48 267 2.0 8.0 0.00 0.00 0.00 37 1011.2
20260508004548 49 265 4.0 12.0 0.00 0.00 0.00 35 1017.3
20260508004511 49 265 5.0 12.0 0.00 0.00 0.00 35 1011.2
20260508003036 49 280 1.0 6.0 0.00 0.00 0.00 35 1017.0
20260508003011 49 280 2.0 6.0 0.00 0.00 0.00 36 1011.0
20260508001543 49 252 1.0 10.0 0.00 0.00 0.00 35 1017.0
20260508001511 49 252 1.0 7.0 0.00 0.00 0.00 35 1011.0
20260508000042 49 300 4.0 10.0 0.00 0.00 0.00 34 1017.1
20260508000011 49 292 5.0 9.0 0.00 0.00 0.00 35 1011.0
20260507234539 49 228 2.0 16.0 0.00 0.00 0.00 34 1017.0
20260507234511 49 223 3.0 10.0 0.00 0.00 0.00 34 1011.0
20260507233037 50 244 5.0 16.0 0.00 0.00 0.00 32 1017.0
20260507233010 50 243 5.0 16.0 0.00 0.00 0.00 33 1011.0
20260507231539 50 257 5.0 13.0 0.00 0.00 0.00 32 1017.1
20260507231509 50 267 5.0 13.0 0.00 0.00 0.00 33 1011.1
20260507230048 50 221 3.0 12.0 0.00 0.00 0.00 32 1017.2
20260507230019 50 221 3.0 12.0 0.00 0.00 0.00 33 1011.1
20260507224540 50 220 3.0 11.0 0.00 0.00 0.00 32 1017.2
20260507224509 50 220 4.0 11.0 0.00 0.00 0.00 32 1011.2
20260507223038 50 249 5.0 15.0 0.00 0.00 0.00 33 1017.3
20260507223007 50 288 5.0 15.0 0.00 0.00 0.00 34 1011.2
20260507221541 50 321 1.0 5.0 0.00 0.00 0.00 35 1017.2
20260507221504 50 321 1.0 5.0 0.00 0.00 0.00 36 1011.2
20260507220047 49 334 3.0 9.0 0.00 0.00 0.00 34 1017.5
20260507220003 49 335 2.0 8.0 0.00 0.00 0.00 35 1011.5
20260507214540 49 0 3.0 10.0 0.00 0.00 0.00 34 1017.5
20260507214502 49 232 2.0 9.0 0.00 0.00 0.00 36 1011.5
20260507213043 49 229 3.0 9.0 0.00 0.00 0.00 38 1017.5
20260507213001 49 230 3.0 9.0 0.00 0.00 0.00 36 1011.5
20260507211600 49 290 4.0 9.0 0.00 0.00 0.00 36 1011.5
20260507211542 48 302 2.0 9.0 0.00 0.00 0.00 35 1017.5
20260507210104 48 285 2.0 8.0 0.00 0.00 0.00 34 1011.6
20260507210041 48 285 3.0 8.0 0.00 0.00 0.00 34 1017.6
20260507204558 48 266 5.0 9.0 0.00 0.00 0.00 35 1011.8
20260507204538 48 267 2.0 8.0 0.00 0.00 0.00 34 1017.8
20260507203105 49 306 5.0 14.0 0.00 0.00 0.00 35 1017.8
20260507203059 49 296 6.0 14.0 0.00 0.00 0.00 38 1011.8
20260507201618 49 293 3.0 9.0 0.00 0.00 0.00 37 1012.0
20260507201539 49 294 4.0 11.0 0.00 0.00 0.00 37 1018.1
20260507200108 49 275 3.0 14.0 0.00 0.00 0.00 41 1012.0
20260507200040 49 0 4.0 14.0 0.00 0.00 0.00 40 1018.1
20260507194553 49 313 3.0 15.0 0.00 0.00 0.00 35 1012.3
20260507194537 49 0 5.0 15.0 0.00 0.00 0.00 35 1018.3
20260507193052 48 322 1.0 5.0 0.00 0.00 0.00 36 1012.2
20260507193043 48 348 1.0 5.0 0.00 0.00 0.00 37 1018.4
20260507191548 47 323 2.0 13.0 0.00 0.00 0.00 38 1012.4
20260507191542 47 323 4.0 13.0 0.00 0.00 0.00 38 1018.4
20260507190051 46 273 1.0 6.0 0.00 0.00 0.00 41 1012.5
20260507190046 46 273 1.0 6.0 0.00 0.00 0.00 38 1018.5
20260507184544 46 217 5.0 10.0 0.00 0.00 0.00 41 1012.5
20260507184538 46 217 6.0 12.0 0.00 0.00 0.00 41 1018.5
20260507183043 46 264 7.0 14.0 0.00 0.00 0.00 43 1012.8
20260507183039 46 242 7.0 14.0 0.00 0.00 0.00 43 1018.7
20260507181542 46 271 3.0 9.0 0.00 0.00 0.00 41 1012.7
20260507181539 46 286 3.0 9.0 0.00 0.00 0.00 41 1018.6